Location: Castiglione Fibocchi
(43.5333°N, 11.7667°E)
Time: 18:03:18
(UTC+00:00)

Cosmos 1892 - Pass Details

Date: 15 August 2020
Orbit: 503 x 526 km, 82.5° (Epoch: 18 September)

Event Time Altitude Azimuth Distance (km) Brightness Sun altitude
Rises 02:59:19 0° 358° (N) 2,651 6.8 -13.5°
Reaches altitude 10° 03:01:33 10° 5° (N) 1,754 5.9 -13.1°
Maximum altitude 03:05:14 43° 78° (ENE) 731 4.0 -12.6°
Drops below altitude 10° 03:08:51 10° 151° (SSE) 1,726 5.3 -12.0°
Sets 03:11:02 0° 158° (SSE) 2,603 6.2 -11.7°
